Provincetown, Massachusetts, United States (02657)
Lat: 42.06N, Lon: 70.18W
Wx Zone: MAZ022
Local Info
Past Weather Observations for Today

NOTE: This archive is for the closest National Weather Service station to Provincetown. Information may differ from the station used for current weather conditions.

Click here for Long-term Archive

Time Weather Temperature Dewpoint Humidity Pressure Winds Precip Visibility
07:15
Clear
66°F / 19°C 59°F / 15°C 78% 29.74 in
(1007 mb)
Calm - 10SM
06:55
Clear
66°F / 19°C 61°F / 16°C 83% 29.74 in
(1007 mb)
W 13.8 mph
(W 22 kph)
- 10SM
06:35
Clear
66°F / 19°C 61°F / 16°C 83% 29.74 in
(1007 mb)
W 10.4 mph
(W 17 kph)
- 10SM
06:15
Clear
66°F / 19°C 61°F / 16°C 83% 29.74 in
(1007 mb)
W 12.7 mph
(W 20 kph)
- 10SM
05:55
Clear
64°F / 18°C 61°F / 16°C 88% 29.71 in
(1006 mb)
SSW 11.5 mph
(SSW 19 kph)
- 10SM
05:35
Clear
64°F / 18°C 61°F / 16°C 88% 29.71 in
(1006 mb)
SSW 10.4 mph
(SSW 17 kph)
- 10SM
05:15
Clear
64°F / 18°C 61°F / 16°C 88% 29.71 in
(1006 mb)
SSW 10.4 mph
(SSW 17 kph)
- 10SM
04:55
Clear
64°F / 18°C 61°F / 16°C 88% 29.71 in
(1006 mb)
SSW 9.2 mph
(SSW 15 kph)
- 10SM
04:35
Clear
64°F / 18°C 61°F / 16°C 88% 29.71 in
(1006 mb)
SSW 10.4 mph
(SSW 17 kph)
- 10SM
04:15
Clear
64°F / 18°C 61°F / 16°C 88% 29.68 in
(1005 mb)
SSW 12.7 mph
(SSW 20 kph)
- 10SM
03:55
Clear
64°F / 18°C 61°F / 16°C 88% 29.68 in
(1005 mb)
SSW 11.5 mph
(SSW 19 kph)
- 10SM
03:35
Clear
64°F / 18°C 61°F / 16°C 88% 29.65 in
(1004 mb)
SSW 10.4 mph
(SSW 17 kph)
- 10SM
03:15
Clear
64°F / 18°C 63°F / 17°C 94% 29.65 in
(1004 mb)
SSW 11.5 mph
(SSW 19 kph)
- 10SM
02:55
Clear
64°F / 18°C 63°F / 17°C 94% 29.65 in
(1004 mb)
SSW 12.7 mph
(SSW 20 kph)
- 10SM
02:35
Clear
64°F / 18°C 63°F / 17°C 94% 29.62 in
(1003 mb)
SSW 13.8 mph
(SSW 22 kph)
- 10SM
02:15
Clear
66°F / 19°C 63°F / 17°C 88% 29.62 in
(1003 mb)
SW 11.5 mph
(SW 19 kph)
- 10SM
01:55
Clear
66°F / 19°C 63°F / 17°C 88% 29.62 in
(1003 mb)
SW 12.7 mph
(SW 20 kph)
- 10SM
01:35
Clear
66°F / 19°C 64°F / 18°C 94% 29.62 in
(1003 mb)
SW 12.7 mph
(SW 20 kph)
- 10SM
01:15
Clear
66°F / 19°C 64°F / 18°C 94% 29.59 in
(1002 mb)
SW 12.7 mph
(SW 20 kph)
- 10SM
00:55
Clear
68°F / 20°C 64°F / 18°C 88% 29.59 in
(1002 mb)
SW 13.8 mph
(SW 22 kph)
- 10SM
00:35
Clear
70°F / 21°C 64°F / 18°C 83% 29.59 in
(1002 mb)
SW 13.8 mph
(SW 22 kph)
- 10SM
00:15
Clear
70°F / 21°C 64°F / 18°C 83% 29.59 in
(1002 mb)
SW 12.7 mph
(SW 20 kph)
- 10SM
Time Weather Temperature Dewpoint Humidity Pressure Winds Precip Visibility


Weather for websites

WeatherForYou.com, LLC is not responsible for any damages or problems caused by this service. Current weather conditions are obtained from the closest station including government and personal stations which may have varying degrees of accuracy. Weather forecasts are derived from the NOAA NDFD. Like all things, this site belongs to Jesus Christ... He just trusts me to maintain it. If you have any questions or comments email webmaster@weatherforyou.com

Copyright © 2014, WeatherForYou.com LLC. All rights reserved.